Time_in_sec,Mx,My,Mz
1314272067.05646777,-0.45436794,0.38674536,-0.81651014
1314272067.10461903,-0.45279542,0.38560683,-0.81747299
1314272067.15344930,-0.45316544,0.38598123,-0.81683379
1314272067.20209169,-0.45107451,0.38800526,-0.82004488
1314272067.25260186,-0.45228237,0.38620982,-0.81559169
1314272067.30181789,-0.45333886,0.38473406,-0.81763011
1314272067.35246658,-0.45372087,0.38460842,-0.81725311
1314272067.40160942,-0.45357135,0.38485539,-0.81698120
1314272067.45364928,-0.45172513,0.38532159,-0.81542075
1314272067.50562763,-0.45387030,0.38536617,-0.81739986
1314272067.55749822,-0.45410475,0.38573903,-0.81675291
1314272067.60447192,-0.45288342,0.38459453,-0.81680745
1314272067.65257525,-0.45322105,0.38599187,-0.81776530
1314272067.70167184,-0.45315388,0.38663137,-0.81882709
1314272067.75362802,-0.45345253,0.38598737,-0.81711543
1314272067.80163193,-0.45412862,0.38473886,-0.81727731
1314272067.85649204,-0.45309398,0.38596758,-0.81563616
1314272067.90161705,-0.45304483,0.38485220,-0.81721640
1314272067.95360398,-0.45224696,0.38685539,-0.81718576
1314272068.00446892,-0.45208526,0.38777673,-0.82116163
1314272068.05258656,-0.45378831,0.38512370,-0.81832165
1314272068.10167336,-0.45221823,0.38622192,-0.81678158
1314272068.15245867,-0.45255697,0.38573557,-0.81799078
1314272068.20160174,-0.45151082,0.38660967,-0.81846809
1314272068.25169230,-0.45384753,0.38448265,-0.81712681
1314272068.30156708,-0.45563316,0.38438165,-0.81762564
1314272068.35331440,-0.45166525,0.38699162,-0.81874490
1314272068.40063763,-0.45342016,0.38600558,-0.81883764
1314272068.45361257,-0.45226321,0.38700846,-0.81970739
1314272068.50160193,-0.45327768,0.38512355,-0.81882298
1314272068.55247664,-0.45321408,0.38611612,-0.81763321
1314272068.60149717,-0.45348337,0.38486293,-0.81777191
1314272068.65252805,-0.45311719,0.38599637,-0.81828988
1314272068.70152593,-0.45227683,0.38560516,-0.81784123
1314272068.75314236,-0.45268273,0.38447928,-0.81798863
1314272068.80185771,-0.45166546,0.38915113,-0.82075006
1314272068.85365534,-0.45326376,0.38537207,-0.81855881
1314272068.90199494,-0.45321354,0.38513565,-0.82001287
1314272068.95249319,-0.45182270,0.38674614,-0.81914991
1314272069.00056219,-0.45291755,0.38500220,-0.81959718
1314272069.05361986,-0.45202553,0.38510346,-0.81822103
1314272069.10449314,-0.45283407,0.38649336,-0.81801218
1314272069.15350962,-0.45255530,0.38663879,-0.82011914
1314272069.20447588,-0.45172152,0.38597324,-0.81754708
1314272069.25248456,-0.45039487,0.38656688,-0.81561941
1314272069.30177689,-0.45107231,0.38559419,-0.81803775
1314272069.35249519,-0.45186314,0.38472000,-0.81781113
1314272069.40462446,-0.45074841,0.38696253,-0.81696856
1314272069.45566344,-0.45226187,0.38673264,-0.81745094
1314272069.50462437,-0.45228449,0.38445190,-0.81584400
1314272069.55346847,-0.45102930,0.38505921,-0.81511396
1314272069.60447717,-0.45213738,0.38926947,-0.81958437
1314272069.65249753,-0.45199755,0.38760999,-0.81744236
1314272069.70155931,-0.45096296,0.38783398,-0.81592637
1314272069.75259972,-0.45241994,0.38646293,-0.81560141
1314272069.80459881,-0.45422152,0.38536021,-0.81649154
1314272069.85247612,-0.45254773,0.38445348,-0.81572640
1314272069.90154314,-0.45359117,0.38536155,-0.81725127
1314272069.94160724,-0.45292988,0.38749206,-0.81722939
1314272070.00457692,-0.45095307,0.38758090,-0.81579131
1314272070.05269265,-0.45259976,0.38695094,-0.81402397
1314272070.10145998,-0.45280132,0.38636151,-0.81747890
1314272070.15246964,-0.45197064,0.38923758,-0.81678987
1314272070.20159936,-0.45286945,0.38584778,-0.81641811
1314272070.25366712,-0.45341092,0.38472348,-0.81657326
1314272070.30162334,-0.45356530,0.38611016,-0.81672496
1314272070.35248137,-0.45319971,0.38721937,-0.81498843
1314272070.40447855,-0.45222542,0.38825718,-0.81891882
1314272070.45249701,-0.45225391,0.38673112,-0.81731784
1314272070.50150704,-0.45257488,0.38498542,-0.81838405
1314272070.55313993,-0.45288631,0.38597661,-0.81668526
1314272070.60451174,-0.45233908,0.38433674,-0.81677455
1314272070.65564203,-0.45188576,0.38761300,-0.81783384
1314272070.70549870,-0.45077321,0.38709286,-0.81736875
1314272070.75251198,-0.45214313,0.38685989,-0.81771034
1314272070.80454516,-0.45245063,0.38734797,-0.81600755
1314272070.85251451,-0.45315659,0.38484919,-0.81682491
1314272070.90167737,-0.45249677,0.38625079,-0.81918466
1314272070.95302200,-0.45184508,0.38747963,-0.81716746
1314272071.00059938,-0.45392257,0.38484943,-0.81607288
1314272071.05251360,-0.45326602,0.38444459,-0.81417596
1314272071.10152435,-0.45200527,0.38545200,-0.81557029
1314272071.15253472,-0.45136893,0.38570338,-0.81619895
1314272071.20446634,-0.45170781,0.38838127,-0.81928807
1314272071.25343394,-0.45351863,0.38622683,-0.81592751
1314272071.30154037,-0.45267048,0.38382462,-0.81559616
1314272071.35245275,-0.45532680,0.38484982,-0.81469423
1314272071.40453601,-0.45277914,0.38545373,-0.81495136
1314272071.45054483,-0.45244935,0.38606739,-0.81387627
1314272071.50047421,-0.45373333,0.38508880,-0.81513566
1314272071.55250144,-0.45066258,0.38805211,-0.81312609
1314272071.60046625,-0.45360062,0.38646933,-0.81500572
1314272071.65314674,-0.45154983,0.38531244,-0.81474763
1314272071.70242000,-0.45189628,0.38784182,-0.81571442
1314272071.75339293,-0.45250645,0.38718429,-0.81242907
1314272071.80154896,-0.45283398,0.38516429,-0.81137192
1314272071.85029721,-0.45425653,0.38456461,-0.81264204
1314272071.90048361,-0.45175147,0.38655818,-0.81344229
1314272071.94161916,-0.45152754,0.38641414,-0.81196976
1314272072.00482941,-0.45374772,0.38682550,-0.81289500
1314272072.05250859,-0.45264658,0.38766471,-0.81018627
1314272072.10170150,-0.45340377,0.38552815,-0.80955058
1314272072.15248871,-0.45348355,0.38569337,-0.81313676
1314272072.20159507,-0.45299834,0.38579932,-0.81178379
1314272072.25383806,-0.45114917,0.38588816,-0.81022042
1314272072.30448031,-0.45205376,0.38526255,-0.80960429
1314272072.35253406,-0.45260894,0.38690394,-0.80964810
1314272072.40448260,-0.45156929,0.38566858,-0.81276226
1314272072.45249462,-0.45234174,0.38639924,-0.80976170
1314272072.50212598,-0.45375431,0.38655120,-0.81077158
1314272072.55248737,-0.45220426,0.38514137,-0.80987716
1314272072.60151982,-0.45225483,0.38552782,-0.81067854
1314272072.65250206,-0.45208150,0.38577023,-0.81000745
1314272072.70150042,-0.45248923,0.38690543,-0.80990648
1314272072.75253963,-0.45332882,0.38415664,-0.81072962
1314272072.80452132,-0.45223436,0.38605064,-0.81253779
1314272072.85249734,-0.45358512,0.38428253,-0.81047994
1314272072.90178609,-0.45094833,0.38778242,-0.81115127
1314272072.95247579,-0.45138362,0.38626105,-0.80957347
1314272073.00186944,-0.45118493,0.38539264,-0.81088179
1314272073.05473518,-0.45242772,0.38614011,-0.80896902
1314272073.10459018,-0.45136577,0.38600644,-0.80930537
1314272073.15248394,-0.45287067,0.38579926,-0.81190914
1314272073.20546818,-0.45121655,0.38740820,-0.81116378
1314272073.25259852,-0.45187935,0.38638392,-0.80880702
1314272073.30173254,-0.45219806,0.38840562,-0.80937058
1314272073.35248399,-0.45142001,0.38574123,-0.80798042
1314272073.40146422,-0.45342955,0.38578427,-0.80995178
1314272073.45649767,-0.45164976,0.38764471,-0.80933368
1314272073.50449944,-0.45190522,0.38563532,-0.80933332
1314272073.55748057,-0.45151818,0.38714156,-0.80945510
1314272073.60230780,-0.44992131,0.39019170,-0.81402797
1314272073.65251660,-0.45157966,0.38790688,-0.81039250
1314272073.70171022,-0.45281908,0.38528705,-0.81110674
1314272073.75317955,-0.45256975,0.38503692,-0.81148851
1314272073.80477142,-0.45137295,0.38804170,-0.81144261
1314272073.85372233,-0.45192903,0.38563988,-0.80973256
1314272073.90161133,-0.45203725,0.38528377,-0.81159264
1314272073.94061422,-0.44978356,0.38677430,-0.81213826
1314272074.00502276,-0.45247635,0.38627499,-0.80976844
1314272074.05258918,-0.45307684,0.38752389,-0.80835325
1314272074.10158587,-0.45162693,0.38776594,-0.80893546
1314272074.15261006,-0.45105585,0.38612151,-0.80862552
1314272074.20163703,-0.45095497,0.38650337,-0.80915302
1314272074.25569701,-0.45236427,0.38512322,-0.80802965
1314272074.30159640,-0.45234248,0.38436550,-0.80775756
1314272074.35251260,-0.45192277,0.38473514,-0.80747116
1314272074.40046835,-0.45162821,0.38904652,-0.81106675
1314272074.45248413,-0.45126542,0.38736877,-0.80745322
1314272074.50145197,-0.45182648,0.38459113,-0.80587333
1314272074.55304289,-0.45205534,0.38536409,-0.80735075
1314272074.60058522,-0.45071024,0.38572738,-0.80740941
1314272074.65148234,-0.45108625,0.38585177,-0.80690134
1314272074.70156670,-0.45189124,0.38688856,-0.80894405
1314272074.75250053,-0.45101419,0.38586235,-0.80795819
1314272074.80447578,-0.44958302,0.38748953,-0.80868435
1314272074.85328364,-0.45242387,0.38463223,-0.80909026
1314272074.90229225,-0.45182976,0.38612324,-0.80800658
1314272074.95334554,-0.45099822,0.38686407,-0.80756688
1314272075.00561357,-0.45163986,0.38739163,-0.80919862
1314272075.05369806,-0.45318475,0.38601303,-0.80808300
1314272075.10161304,-0.45127389,0.38551086,-0.81009209
1314272075.15345645,-0.45163092,0.38726434,-0.80906457
1314272075.20466018,-0.45187256,0.38967246,-0.81055486
1314272075.25259209,-0.45159629,0.38587618,-0.80865449
1314272075.30197167,-0.45125663,0.38523200,-0.80756950
1314272075.35249043,-0.45297110,0.38627210,-0.80900097
1314272075.40621066,-0.45258048,0.38742527,-0.81137425
1314272075.45258403,-0.45176569,0.38513061,-0.80932164
1314272075.50160050,-0.45304272,0.38427630,-0.81044894
1314272075.55250549,-0.45262095,0.38539910,-0.81003541
1314272075.60448527,-0.45172024,0.38753259,-0.81053036
1314272075.65249777,-0.45167863,0.38626871,-0.80998820
1314272075.70167494,-0.45222536,0.38692808,-0.81227857
1314272075.75257778,-0.45376626,0.38605109,-0.81103379
1314272075.80159521,-0.45071959,0.38499999,-0.80992413
1314272075.85439157,-0.45418099,0.38605729,-0.81119007
1314272075.90160108,-0.45066932,0.38576832,-0.81125301
1314272075.94162440,-0.45147383,0.38765982,-0.81091505
1314272076.00446653,-0.45145494,0.38828418,-0.81052083
1314272076.05255961,-0.45289502,0.38678432,-0.80992872
1314272076.10187411,-0.45283496,0.38529006,-0.81137288
1314272076.15368199,-0.45358044,0.38581312,-0.81248015
1314272076.20160174,-0.45062086,0.38879767,-0.81233358
1314272076.25356770,-0.45198855,0.38615361,-0.81066805
1314272076.30550051,-0.45183316,0.38564590,-0.81039017
1314272076.35250473,-0.45221204,0.38715237,-0.80975991
1314272076.40446854,-0.45067614,0.38765353,-0.81113482
1314272076.45258641,-0.45241329,0.38540816,-0.81108451
1314272076.50175285,-0.45381987,0.38581017,-0.81196332
1314272076.55259633,-0.45102841,0.38676861,-0.81035262
1314272076.60458302,-0.45042685,0.38639867,-0.81164169
1314272076.65376091,-0.45102242,0.38701865,-0.81022155
1314272076.70458317,-0.45030516,0.38614857,-0.81189817
1314272076.75647569,-0.45274860,0.38539916,-0.80991012
1314272076.80448198,-0.45166042,0.38819787,-0.81397969
1314272076.85249996,-0.45191610,0.38601416,-0.80946940
1314272076.90173054,-0.45338336,0.38504624,-0.81153494
1314272076.95249724,-0.45223501,0.38502166,-0.81040847
1314272077.00060415,-0.45132539,0.38702783,-0.81076932
1314272077.05503702,-0.45159531,0.38575038,-0.80865347
1314272077.10461307,-0.45329994,0.38553268,-0.81007510
1314272077.15405130,-0.45093840,0.38752934,-0.81101620
1314272077.20444059,-0.45059520,0.38653207,-0.81218272
1314272077.25300956,-0.45254949,0.38538545,-0.80883777
1314272077.30145907,-0.45349407,0.38592219,-0.81101733
1314272077.35248494,-0.45119485,0.38564572,-0.81101686
1314272077.40049291,-0.45157185,0.38589588,-0.81050974
1314272077.45169377,-0.45232973,0.38790405,-0.80937433
1314272077.50160408,-0.45297548,0.38592052,-0.81138557
1314272077.55246449,-0.45196980,0.38476849,-0.81052411
1314272077.60057759,-0.44990218,0.38865653,-0.81162852
1314272077.65249681,-0.45225182,0.38615522,-0.81055045
1314272077.70215416,-0.45134822,0.38690662,-0.81116754
1314272077.75321603,-0.45178950,0.38513517,-0.80972087
1314272077.80641460,-0.45152649,0.38729310,-0.81184363
1314272077.85033989,-0.45137876,0.38462737,-0.80969369
1314272077.90049887,-0.45008615,0.38663346,-0.81043059
1314272077.94204473,-0.45170277,0.38742805,-0.81251770
1314272078.00445485,-0.45281306,0.38654181,-0.81085050
1314272078.05250502,-0.45205465,0.38639307,-0.80948007
1314272078.10176849,-0.45302776,0.38540378,-0.81005865
1314272078.15247607,-0.45168787,0.38755077,-0.81225252
1314272078.20560193,-0.45254481,0.38691607,-0.81083798
1314272078.25535560,-0.45189229,0.38600963,-0.80907017
1314272078.30561304,-0.45363262,0.38630110,-0.81102800
1314272078.35348129,-0.45357499,0.38704365,-0.80996937
1314272078.40550017,-0.44935280,0.38877457,-0.81146550
1314272078.45245886,-0.45041794,0.38627136,-0.81150764
1314272078.50217581,-0.45099074,0.38600785,-0.80981445
1314272078.55246401,-0.45200703,0.38638398,-0.80868167
1314272078.60207629,-0.45278150,0.38352153,-0.81069368
1314272078.65242505,-0.45433149,0.38593608,-0.81146300
1314272078.70549893,-0.45166570,0.38664302,-0.80972499
1314272078.75346327,-0.45061168,0.38651085,-0.81019437
1314272078.80447197,-0.45157677,0.38652480,-0.81051469
1314272078.85265374,-0.45162714,0.38475171,-0.80931097
1314272078.90176773,-0.45303941,0.38892266,-0.80982018
1314272078.95248294,-0.45284390,0.38541737,-0.81150699
1314272079.00546360,-0.45182520,0.38564438,-0.81025714
1314272079.05653119,-0.45364615,0.38590255,-0.80903673
1314272079.10459280,-0.45203787,0.38525951,-0.80933815
1314272079.15245628,-0.45116204,0.38651860,-0.81035841
1314272079.20447063,-0.45201465,0.38756451,-0.81319952
1314272079.25250626,-0.45181522,0.38639605,-0.80999690
1314272079.30189586,-0.45259419,0.38501722,-0.80963326
1314272079.35322189,-0.45341238,0.38450068,-0.80755430
1314272079.40561128,-0.45115113,0.38613972,-0.81022239
1314272079.45162344,-0.45201489,0.38739023,-0.80868959
1314272079.50561309,-0.45208126,0.38361073,-0.80800229
1314272079.55248356,-0.45292693,0.38478091,-0.81071132
1314272079.60549855,-0.45106313,0.38715202,-0.81088793
1314272079.65269327,-0.45192903,0.38563988,-0.80973256
1314272079.70174146,-0.45307925,0.38692075,-0.81073588
1314272079.75292945,-0.45169052,0.38677335,-0.81012523
1314272079.80448079,-0.45379069,0.38603139,-0.80917853
1314272079.85366344,-0.45405006,0.38452512,-0.80918217
1314272079.90074277,-0.45272404,0.38742834,-0.81151503
1314272079.94551587,-0.45141643,0.38538814,-0.81023192
1314272080.00444412,-0.45233470,0.38752824,-0.80950445
1314272080.05248880,-0.45255229,0.38777226,-0.80859041
1314272080.10163617,-0.45282069,0.38538855,-0.80885327
1314272080.15335584,-0.45312253,0.38728145,-0.80914968
1314272080.20112395,-0.45283386,0.38717377,-0.81112158
1314272080.25649333,-0.45296165,0.38516432,-0.81124657
1314272080.30060697,-0.44958612,0.38585740,-0.80893761
1314272080.35347247,-0.45282492,0.38704646,-0.81098753
1314272080.40048075,-0.45197600,0.38667798,-0.81266034
1314272080.45258522,-0.45113525,0.38613671,-0.80995625
1314272080.50157237,-0.45375431,0.38655120,-0.81077158
1314272080.55250382,-0.45255381,0.38603863,-0.81109720
1314272080.60163569,-0.45232698,0.38451248,-0.80974692
1314272080.65246582,-0.45186391,0.38552618,-0.81092149
1314272080.70148659,-0.45172763,0.38655365,-0.81304306
1314272080.75347924,-0.45333281,0.38365504,-0.81085873
1314272080.80546761,-0.45214057,0.38947251,-0.81507736
1314272080.85251403,-0.45235911,0.38466859,-0.81253463
1314272080.90147352,-0.45140085,0.38653991,-0.81209612
1314272080.95340967,-0.45175245,0.38668397,-0.81344330
1314272081.00163507,-0.45384604,0.38621631,-0.81461996
1314272081.05433893,-0.45237499,0.38467163,-0.81280082
1314272081.10447955,-0.45224136,0.38492164,-0.81279504
1314272081.15749478,-0.45140925,0.38568673,-0.81460983
1314272081.19650531,-0.45223466,0.38720542,-0.81466812
1314272081.25275111,-0.45285803,0.38732836,-0.81377625
1314272081.30186653,-0.45345700,0.38747099,-0.81473970
1314272081.35356498,-0.45275316,0.38821185,-0.81417465
1314272081.40458751,-0.45159143,0.38657632,-0.81528980
1314272081.45375919,-0.45142710,0.38594133,-0.81487793
1314272081.50449920,-0.45209458,0.38572025,-0.81703603
1314272081.55347347,-0.45296147,0.38433388,-0.81588173
1314272081.60549855,-0.45135230,0.38773409,-0.81793696
1314272081.65331030,-0.45240140,0.38723731,-0.81746262
1314272081.69362307,-0.45157486,0.38760230,-0.81715298
1314272081.75247025,-0.45344052,0.38749221,-0.81672806
1314272081.80456257,-0.45237431,0.38570064,-0.81493014
1314272081.85514784,-0.45182398,0.38569289,-0.81476611
1314272081.90160990,-0.45076936,0.38558501,-0.81748998
1314272081.94152975,-0.45187783,0.38761148,-0.81770074
1314272082.00444221,-0.45208254,0.38722509,-0.81664872
1314272082.05335784,-0.45252073,0.38708580,-0.81494874
1314272082.10192466,-0.45230347,0.38799652,-0.81799310
1314272082.15246630,-0.45033664,0.38733369,-0.81681526
1314272082.19360113,-0.45192805,0.38784790,-0.81624669
1314272082.25634074,-0.45065963,0.39000857,-0.81963825
1314272082.30551839,-0.45273182,0.38659942,-0.81628323
1314272082.35348678,-0.45205092,0.38520953,-0.81636673
1314272082.40180421,-0.45240858,0.38927257,-0.81959987
1314272082.45250678,-0.45181769,0.38712198,-0.81901979
1314272082.50179029,-0.45144305,0.38493961,-0.81526923
1314272082.55289721,-0.45242605,0.38420340,-0.81598282
1314272082.60446167,-0.45203400,0.38608545,-0.81597447
1314272082.65366125,-0.45199460,0.38723266,-0.81743938
1314272082.69284439,-0.45194590,0.38810250,-0.81651479
1314272082.75348377,-0.45020783,0.38921735,-0.81668925
1314272082.80473447,-0.45161223,0.38720828,-0.81556094
1314272082.85261583,-0.45231017,0.38571274,-0.81612003
1314272082.90164852,-0.45258865,0.38674638,-0.81839788
1314272082.94111276,-0.45208693,0.38687351,-0.81903332
1314272083.00160503,-0.45103246,0.38759607,-0.81712204
1314272083.05649972,-0.45341465,0.38824084,-0.81620169
1314272083.10160017,-0.45238960,0.38572794,-0.81745076
1314272083.15254879,-0.45299840,0.38712838,-0.81842411
1314272083.20050693,-0.44993117,0.38760486,-0.81904846
1314272083.25260663,-0.45158386,0.38672486,-0.81741220
1314272083.30150700,-0.45111868,0.38432273,-0.81670487
1314272083.35358500,-0.45305762,0.38648736,-0.81722921
1314272083.40060878,-0.45382559,0.38573441,-0.81660438
1314272083.45352674,-0.45185316,0.38547167,-0.81755090
1314272083.50048828,-0.45259818,0.38684940,-0.81627750
1314272083.55245519,-0.45116329,0.38495925,-0.81737518
1314272083.60049438,-0.45261019,0.38534459,-0.81666481
1314272083.65244436,-0.45267758,0.38686460,-0.81760818
1314272083.69040871,-0.45435536,0.38726974,-0.81850249
1314272083.75303411,-0.45364720,0.38735741,-0.81567800
1314272083.80146909,-0.45133680,0.38554725,-0.81341118
1314272083.85040879,-0.45419922,0.38646191,-0.81371367
1314272083.90046191,-0.45181704,0.38581717,-0.81463403
1314272083.94145727,-0.45234755,0.38531873,-0.81452793
1314272084.00447273,-0.45265332,0.38771474,-0.81482834
1314272084.05251312,-0.45263320,0.38605380,-0.81242794
1314272084.10179996,-0.45282242,0.38581443,-0.81336522
1314272084.15249586,-0.45397657,0.38759845,-0.81437248
1314272084.19359207,-0.45280692,0.38596141,-0.81535453
1314272084.25213194,-0.45200881,0.38580510,-0.81331879
1314272084.30561042,-0.45210466,0.38680381,-0.81253600
1314272084.35248446,-0.45218405,0.38681898,-0.81386667
1314272084.40446711,-0.45249897,0.38632807,-0.81467664
1314272084.45280743,-0.45218995,0.38757366,-0.81387264
1314272084.50445962,-0.45381629,0.38545707,-0.81421483
1314272084.55248499,-0.45289940,0.38643274,-0.81231332
1314272084.60160351,-0.45324320,0.38456583,-0.81377774
1314272084.65374684,-0.45234120,0.38541874,-0.81214136
1314272084.69267058,-0.45386463,0.38443717,-0.81288397
1314272084.75268054,-0.45098016,0.38678375,-0.81180871
1314272084.80445886,-0.45007089,0.38893998,-0.81442505
1314272084.85265899,-0.45379710,0.38492665,-0.81169027
1314272084.90443516,-0.45235005,0.38655078,-0.81215024
